TITAN 3C TRANSTAGE DEB, 33512

Orbit data source: Space-Track

TITAN 3C TRANSTAGE DEB, 33512 is space debris in GEO originally from a launch on Thu, 26 Sep 1968 UTC launched from the Air Force Eastern Test Range (AFETR). Debris objects in space refer to the collection of defunct objects orbiting the Earth. Examples of debris include non-operational satellites, rocket bodies, and fragments generated from explosions, collisions, or faulty payload assembly.

Not visible in the next 10 days
Identifier
33512, 1968-081N
Orbit
GEO
Country
Flag of USUS
Related business
Manufacturer
Unknown
Mission
Spacecraft
Bus & Motor
Unknown
Mass
Unknown
Launch date (UTC)
1968-09-26 (57 years ago)
Launch vehicle
Unknown
Launch site
Air Force Eastern Test Range (AFETR)
Object type
Payload
Rocket body
Debris
Shape & HBR
Unknown shape, 1.1 m
Radar Cross Section
Medium (>0.1 m² and <1 m²)

Expand to show TLE details & history
Last TLE update: 2 days ago

TLE from 2 days ago
0 TITAN 3C TRANSTAGE DEB
1 33512U 68081N   25290.54927432 -.00000037  00000-0  00000-0 0  9992
2 33512   1.6030  34.0471 0144131 286.8920  71.5503  1.00901309 71185
Epoch: 2025-10-17T13:10Z
TLE epoch observation values (Epoch: 2025-10-17T13:10:57.301Z)
Latitude
-0.00001°
Longitude
170.00917°
Altitude
35,424.394 km
Speed
3.095 km/s
True Right ascension
02h 16m 09s
True Declination
0° 00' 00"
Sunlit
Object was in daylight at epoch
Visualization orbit readout
Latitude
Unknown
Longitude
Unknown
Altitude
Unknown
Speed
Unknown
Apparent Right ascension
Unknown
Apparent Declination
Unknown
Sunlit
N/A
Visualization observer readout
Local Sidereal Time
10:36:55
Azimuth
Unknown
Elevation
Unknown
Doppler factor
Unknown
Orbital elements
Apogee altitude
36,217.318 km
Perigee altitude
35,006.899 km
Semi-major axis
41,990.245 km
Eccentricity
0.01441
Inclination
1.603°
RAAN
34.0471°
Arg. of periapsis
286.892°
True anomaly
73.12581°
Mean anomaly
71.5503°
Eccentric anomaly
72.33718°
Mean motion
0.25224 °/min
Orbital period
1,427.19 mins
BSTAR
0
Loading maneuver chart data...
Computing Atmospheric mass density...

Documentation

Showing up to 5 results
|